Location: Mouss�
(47.9236°N, 1.2701°W)
Time: 23:18:27
(UTC+00:00)

CZ-2C R/B - Pass Details

Date: 03 March 2021
Orbit: 783 x 871 km, 98.2° (Epoch: 20 April)

Event Time Altitude Azimuth Distance (km) Brightness Sun altitude
Rises 19:40:50 0° 11° (N) 3,438 5.9 -18.8°
Reaches altitude 10° 19:43:16 10° 9° (N) 2,486 5.2 -19.2°
Maximum altitude 19:48:43 66° 289° (WNW) 915 3.1 -20.1°
Drops below altitude 10° 19:54:01 10° 208° (SSW) 2,412 5.2 -21.0°
Sets 19:56:20 0° 205° (SSW) 3,327 5.9 -21.3°
